Home   Weather   Philipsburg   Past weeks

Flag for Sint Maarten Past Weather in Philipsburg, Sint Maarten — Yesterday and Last 2 Weeks

Now
79 °F

Passing clouds.


Feels Like: 82 °F
Forecast: 78 / 82 °F
Wind: 9 mph from Southeast

Location: Juliana Airport - Saint Maarten

Current Time: Apr 26, 2017 at 4:22:40 am

Latest Report: Apr 26, 2017 at 3:00 am


Visibility: N/A

Pressure: 29.92 "Hg

Humidity: 84%

Dew Point: 73 °F

Location of PhilipsburgLocation

Past Weather in Philipsburg — Graph

°F

Philipsburg Temperature Yesterday

Maximum temperature yesterday: 82 °F (at 10:00 am)
Minimum temperature yesterday: 79 °F (at 12:00 am)
Average temperature yesterday: 80 °F

High & Low Weather Summary for the Past Weeks

 TemperatureHumidityPressure
High84 °F (Apr 12, 12:00 pm)100% (Apr 13, 2:00 am)30.07 "Hg (Apr 13, 2:00 am)
Low75 °F (Apr 15, 1:00 pm)51% (Apr 19, 3:00 pm)29.89 "Hg (Apr 11, 3:00 am)
Average79 °F76%29.98 "Hg
* Reported Apr 11 3:00 am — Apr 26 3:00 am, Philipsburg, Weather by CustomWeather, © 2017

Note: Actual official high and low records may vary slightly from our data, if they occured in-between our weather recording intervals... More about our weather records

Advertising

Philipsburg Weather History for the Previous 24 Hours

Scroll right to see more
 ConditionsComfort  
Time TempWeatherWind HumidityBarometerVisibility
3:00 am
Wed, Apr 26
79 °FPassing clouds.9 mph84%29.92 "HgN/A
2:00 am79 °FPassing clouds.8 mph84%29.95 "HgN/A
1:00 am79 °FPassing clouds.10 mph84%29.95 "HgN/A
12:00 am79 °FSprinkles. Passing clouds.10 mph89%29.98 "HgN/A
11:00 pm
Tue, Apr 25
79 °FPassing clouds.8 mph84%30.01 "HgN/A
10:00 pm81 °FPassing clouds.7 mph79%29.98 "HgN/A
9:00 pm81 °FPassing clouds.10 mph79%29.98 "HgN/A
8:00 pm79 °FPassing clouds.12 mph89%29.95 "HgN/A
7:00 pm81 °FPartly cloudy.9 mph84%29.95 "HgN/A
6:00 pm81 °FPartly sunny.12 mph74%29.92 "HgN/A
5:00 pm82 °FPartly sunny.10 mph70%29.92 "HgN/A
4:00 pm82 °FPartly sunny.14 mph74%29.92 "HgN/A
3:00 pm82 °FPassing clouds.15 mph70%29.95 "HgN/A
2:00 pm82 °FBroken clouds.15 mph70%29.95 "HgN/A
1:00 pm82 °FPartly sunny.14 mph70%29.98 "HgN/A
12:00 pm82 °FBroken clouds.14 mph74%30.01 "HgN/A
11:00 am82 °FPartly sunny.15 mph66%30.01 "HgN/A
10:00 am82 °FPartly sunny.15 mph70%30.01 "HgN/A
9:00 am81 °FPartly sunny.14 mph79%29.98 "HgN/A
8:00 am81 °FPartly sunny.15 mph79%29.98 "HgN/A
7:00 am79 °FSprinkles. Broken clouds.14 mph89%29.95 "HgN/A
6:00 am79 °FSprinkles. Broken clouds.13 mph89%29.95 "HgN/A
5:00 am79 °FPassing clouds.14 mph84%29.92 "HgN/A
4:00 am79 °FSprinkles. Passing clouds.12 mph89%29.92 "HgN/A
Weather by CustomWeather, © 2017

See weather overviewHow to use our weather pages